Regional Weather Roundup
Issued by NWS Cleveland, OH

Home | Current Version | Previous Version | Graphics & Text | Print | Product List | Glossary On
Versions: 1 2 3 4 5 6 7 8 9 10 11 12 13 14 15 16 17 18 19 20 21 22 23 24 25 26 27 28 29 30 31 32 33 34 35 36 37 38 39 40 41 42 43 44 45 46 47 48 49 50
000
ASUS41 KCLE 041010
RWRCLE
OHIO REGIONAL WEATHER ROUNDUP
NATIONAL WEATHER SERVICE CLEVELAND, OH
600 AM EDT TUE AUG 04 2015

NOTE: "FAIR" INDICATES FEW OR NO CLOUDS BELOW 12,000 FEET WITH NO
SIGNIFICANT WEATHER AND/OR OBSTRUCTIONS TO VISIBILITY.

OHZ001>008-015>018-024>027-034-035-043-044-041100-
   NORTHWEST OHIO

CITY           SKY/WX    TMP DP  RH WIND       PRES   REMARKS
DEFIANCE       CLEAR     58  53  84 SW3       29.93R
FINDLAY        CLEAR     57  52  83 SW3       29.92R
TOLEDO EXPRESS CLEAR     58  53  84 W6        29.91S
TOLEDO EXEC    CLEAR     59  52  77 SW5       29.92S
LIMA           CLEAR     59  53  80 S3        29.94S
$$

OHZ009>014-019>023-028>033-038-089-041100-
   NORTHEAST OHIO

CITY           SKY/WX    TMP DP  RH WIND       PRES   REMARKS
CLE-HOPKINS    PTCLDY    60  54  80 SW7       29.92S
CLE-LAKEFRONT  CLEAR     72  57  59 W13       29.89R
CUY CO. ARPT   NOT AVBL
LORAIN-ELYRIA  CLEAR     57  53  86 W5        29.92R
ASHTABULA      CLEAR     60  58  92 W5        29.89S
AKRON-CANTON   CLEAR     60  51  72 SW3       29.93R
WOOSTER        CLEAR     53  50  89 CALM      29.94S
MANSFIELD      CLEAR     55  51  86 S6        29.95R
YOUNGSTOWN     PTCLDY    60  57  89 SW3       29.92R
$$

OHZ042-051>053-060>062-070>072-077>081-041100-
  SOUTHWEST OHIO

CITY           SKY/WX    TMP DP  RH WIND       PRES   REMARKS
CINC-COVINGTON CLEAR     69  65  86 CALM      29.95R
CINC-LUNKEN    FOG       64  64 100 CALM      29.95S VSB 1/4
HAMILTON       FOG       62  61  96 CALM      29.96R VSB 3/4
DAYTON         PTCLDY    61  58  90 SW3       29.97R
WRIGHT-PAT AFB PTCLDY    60  60 100 S1        29.96R
DAYTON GENERAL   N/A     63  59  87 MISG      29.95R
WILMINGTON     PTCLDY    62  60  93 CALM      29.96R FOG
$$

OHZ036-037-039>041-045>050-054>059-063>069-073>076-082>088-041100-
  CENTRAL AND SOUTHEAST OHIO

CITY           SKY/WX    TMP DP  RH WIND       PRES   REMARKS
COLUMBUS       PTCLDY    63  61  93 CALM      29.94R
OSU AIRPORT    PTCLDY    61  59  93 CALM      29.95R
BOLTON FIELD   MOCLDY    60  59  98 CALM      29.96R
RICKENBACK AFB MOCLDY    60  59  96 S3        29.95R
NEWARK         CLEAR     58  56  93 CALM      29.95R
MARION         CLEAR     57  53  86 S3        29.94S
LANCASTER      CLEAR     59  57  93 CALM      29.96R
ZANESVILLE     MOCLDY    61  56  83 CALM      29.96R
NEW PHILLY     CLEAR     55  54  96 S3        29.95R
$$



USA.gov is the U.S. government's official web portal to all federal, state and local government web resources and services.